TimeEST,TemperatureF,Dew PointF,Humidity,Sea Level PressureIn,VisibilityMPH,Wind Direction,Wind SpeedMPH,Gust SpeedMPH,PrecipitationIn,Events,Conditions,WindDirDegrees,DateUTC
12:23 AM,33.8,32.0,93,30.16,0.5,ENE,6.9,-,0.05,Rain,Rain,70,2014-01-11 05:23:00
12:51 AM,34.0,32.0,92,30.14,0.5,East,6.9,-,0.06,Rain,Light Rain,80,2014-01-11 05:51:00
1:51 AM,35.1,33.1,92,30.10,3.0,ENE,8.1,-,0.11,Rain,Light Rain,70,2014-01-11 06:51:00
2:51 AM,35.1,34.0,96,30.06,2.5,NE,4.6,-,0.00,,Overcast,50,2014-01-11 07:51:00
3:35 AM,35.6,35.6,100,30.03,1.5,North,4.6,-,0.02,Rain,Light Rain,360,2014-01-11 08:35:00
3:51 AM,37.0,36.0,96,30.03,1.2,North,3.5,-,0.04,Rain,Light Rain,360,2014-01-11 08:51:00
4:03 AM,37.4,35.6,93,30.01,0.8,NNW,3.5,-,0.00,Rain,Light Rain,340,2014-01-11 09:03:00
4:51 AM,37.0,36.0,96,29.98,0.5,Calm,Calm,-,0.02,Fog-Rain,Light Rain,0,2014-01-11 09:51:00
5:51 AM,37.0,36.0,96,29.96,0.8,WNW,4.6,-,0.03,Rain,Heavy Rain,290,2014-01-11 10:51:00
5:59 AM,37.4,37.4,100,29.93,1.0,West,3.5,-,0.07,Rain,Rain,260,2014-01-11 10:59:00
6:16 AM,37.4,37.4,100,29.91,0.8,East,3.5,-,0.13,Rain,Light Rain,80,2014-01-11 11:16:00
6:44 AM,37.4,37.4,100,29.90,1.0,Calm,Calm,-,0.13,,Overcast,0,2014-01-11 11:44:00
6:51 AM,37.9,37.0,97,29.91,0.8,Calm,Calm,-,0.13,,Overcast,0,2014-01-11 11:51:00
7:51 AM,39.0,37.0,93,29.86,0.5,NNW,4.6,-,0.01,Fog,Fog,330,2014-01-11 12:51:00
7:59 AM,39.2,37.4,93,29.85,0.2,NNW,4.6,-,N/A,Fog,Fog,340,2014-01-11 12:59:00
8:51 AM,39.9,37.9,93,29.82,0.2,Calm,Calm,-,0.02,Fog,Fog,0,2014-01-11 13:51:00
9:00 AM,41.0,39.2,93,29.81,0.5,Calm,Calm,-,0.00,Fog-Rain,Light Rain,0,2014-01-11 14:00:00
9:34 AM,41.0,39.2,93,29.77,0.2,Calm,Calm,-,0.04,Fog-Rain,Light Rain,0,2014-01-11 14:34:00
9:51 AM,42.1,41.0,96,29.77,0.2,Calm,Calm,-,0.04,Fog-Rain,Light Rain,0,2014-01-11 14:51:00
10:28 AM,51.8,51.8,100,29.72,0.5,South,6.9,-,0.11,Fog-Rain,Light Rain,190,2014-01-11 15:28:00
10:34 AM,53.6,51.8,94,29.71,2.0,Variable,6.9,-,0.12,Rain,Rain,0,2014-01-11 15:34:00
10:38 AM,51.8,51.8,100,29.71,0.8,West,5.8,-,0.13,Rain,Rain,280,2014-01-11 15:38:00
10:46 AM,48.2,46.4,93,29.69,0.2,West,6.9,-,0.15,Fog-Rain,Rain,280,2014-01-11 15:46:00
10:51 AM,45.0,44.1,97,29.70,0.2,NW,9.2,-,0.15,Fog-Rain,Light Rain,310,2014-01-11 15:51:00
11:04 AM,48.2,46.4,93,29.68,0.2,NW,9.2,-,0.02,Fog-Rain,Rain,320,2014-01-11 16:04:00
11:30 AM,53.6,51.8,94,29.63,0.5,South,12.7,18.4,0.04,Fog-Rain,Light Rain,170,2014-01-11 16:30:00
11:35 AM,57.2,55.4,94,29.63,2.0,South,13.8,26.5,0.04,Rain,Light Rain,180,2014-01-11 16:35:00
11:42 AM,57.2,55.4,94,29.61,6.0,South,15.0,26.5,0.04,Rain,Light Rain,170,2014-01-11 16:42:00
11:51 AM,57.9,57.0,97,29.60,6.0,South,18.4,25.3,0.04,,Overcast,170,2014-01-11 16:51:00
12:07 PM,59.0,57.2,94,29.59,1.8,South,16.1,25.3,0.04,Rain,Heavy Rain,180,2014-01-11 17:07:00
12:28 PM,57.2,57.2,100,29.59,2.0,SSW,13.8,-,0.16,Rain,Rain,200,2014-01-11 17:28:00
12:32 PM,57.2,55.4,94,29.59,3.0,SSW,15.0,-,0.18,Rain,Heavy Rain,210,2014-01-11 17:32:00
12:44 PM,59.0,55.4,88,29.58,3.0,SSW,13.8,21.9,0.23,Rain,Rain,200,2014-01-11 17:44:00
12:51 PM,57.9,55.9,93,29.56,4.0,South,13.8,21.9,0.25,Rain,Rain,190,2014-01-11 17:51:00
1:00 PM,59.0,55.4,88,29.51,5.0,South,13.8,24.2,0.02,Rain,Light Rain,170,2014-01-11 18:00:00
1:32 PM,60.8,55.4,82,29.48,10.0,SSW,8.1,-,0.04,Rain,Light Rain,200,2014-01-11 18:32:00
1:51 PM,59.0,55.9,90,29.49,10.0,SSW,10.4,16.1,0.05,Rain,Light Rain,210,2014-01-11 18:51:00
2:41 PM,60.8,57.2,88,29.48,1.5,West,19.6,26.5,0.10,Rain,Rain,270,2014-01-11 19:41:00
2:49 PM,59.0,55.4,88,29.47,0.8,WSW,15.0,26.5,0.27,Rain,Rain,240,2014-01-11 19:49:00
2:51 PM,59.0,55.9,90,29.47,1.2,WSW,13.8,25.3,0.27,Rain,Rain,240,2014-01-11 19:51:00
2:54 PM,57.2,55.4,94,29.46,4.0,SW,12.7,25.3,0.01,Rain,Rain,230,2014-01-11 19:54:00
3:51 PM,54.0,51.1,90,29.49,10.0,West,9.2,20.7,0.04,Rain,Light Rain,270,2014-01-11 20:51:00
4:51 PM,50.0,48.0,93,29.49,5.0,WSW,9.2,-,0.03,Rain,Light Rain,250,2014-01-11 21:51:00
5:29 PM,48.2,46.4,93,29.46,5.0,WSW,4.6,-,0.03,Rain,Light Rain,240,2014-01-11 22:29:00
5:51 PM,48.0,46.0,93,29.45,3.0,Calm,Calm,-,0.05,Rain,Light Rain,0,2014-01-11 22:51:00
6:02 PM,46.4,46.4,100,29.43,1.8,Calm,Calm,-,0.01,Rain,Light Rain,0,2014-01-11 23:02:00
6:17 PM,46.4,44.6,93,29.42,0.5,Calm,Calm,-,0.02,Fog-Rain,Light Rain,0,2014-01-11 23:17:00
6:31 PM,48.2,46.4,93,29.40,1.5,ESE,4.6,-,0.03,Rain,Light Rain,110,2014-01-11 23:31:00
6:41 PM,48.2,46.4,93,29.38,3.0,SSE,4.6,-,0.04,Rain,Light Rain,150,2014-01-11 23:41:00
6:51 PM,48.9,46.9,93,29.37,9.0,SE,5.8,-,0.04,Rain,Light Rain,130,2014-01-11 23:51:00
7:51 PM,50.0,48.0,93,29.37,10.0,WNW,3.5,-,0.01,,Mostly Cloudy,290,2014-01-12 00:51:00
8:51 PM,51.1,46.9,86,29.41,10.0,WSW,12.7,-,0.01,,Overcast,240,2014-01-12 01:51:00
9:41 PM,48.2,46.4,93,29.43,9.0,SW,10.4,-,N/A,,Mostly Cloudy,230,2014-01-12 02:41:00
9:51 PM,48.9,46.0,90,29.43,8.0,SW,9.2,-,N/A,,Mostly Cloudy,230,2014-01-12 02:51:00
10:09 PM,48.2,46.4,93,29.43,7.0,WSW,6.9,-,N/A,,Mostly Cloudy,240,2014-01-12 03:09:00
10:33 PM,48.2,46.4,93,29.45,7.0,WNW,9.2,-,N/A,,Overcast,300,2014-01-12 03:33:00
10:51 PM,48.9,46.0,90,29.46,7.0,WNW,9.2,-,0.01,,Overcast,290,2014-01-12 03:51:00
11:51 PM,48.0,39.0,71,29.46,10.0,West,10.4,21.9,N/A,,Overcast,270,2014-01-12 04:51:00